Skip Navigation Links
NOAA logo - Click to go to the NOAA homepage
NOAA's National Weather Service
Alaska Aviation Weather Unit
  NWS logo - Click to go to the NWS homepage
Left Navbar Graphic     22 AKDT = 06 GMT

   
NOAA is celebrating 200 years of science, service, and stewardship. Visit the NOAA 200th celebration Web site to learn more.
USA.gov is the U.S. Government's official Web portal to all Federal, state and local government Web resources and services.
Facebook
NWS on Facebook

Important Change Regarding the AAWU Web Presence

 

Over the last several months, the AAWU has been working to navigate its webpages to a nationally supported server. Security, as well as other needs, have necessitated the change.  In the process, we have made an effort to enhance the functionality of our website, as well as some of our products. As of June 20, 2017, aawu.arh.noaa.gov will be discontinued. The new AAWU web address is weather.gov/aawu. It is now live and will run in-parallel with the old site until it is discontinued. Please send any feedback or questions regarding the new webpages to nws.ar.aawu.webauthors@noaa.gov.  Thank you for your patience during this time of transition.
AAWU Home :: Display TAF Add Bookmark
TAF PACD 280538Z 2806/2906 36012G22KT P6SM BKN025
      TEMPO 2806/2809 FEW025
     FM281200 02007KT P6SM OVC015
     FM282300 36007KT P6SM SCT015 OVC025=
METAR PACD 280053Z AUTO 35018KT 10SM CLR 08/01 A2985=

METAR PACD 280153Z 36015G24KT 10SM CLR 08/01 A2984=

METAR PACD 280253Z 01016KT 10SM CLR 07/01 A2983=

METAR PACD 280353Z 36016G21KT 10SM CLR 07/01 A2981=

METAR PACD 280453Z 36018KT 10SM CLR 05/01 A2980=

METAR PACD 280553Z 36015KT 10SM CLR 04/01 A2980=


NOAA's National Weather Service
Alaska Aviation Weather Unit
6930 Sand Lake Road
Anchorage, AK 99502-1845
Disclaimer
Credits
Glossary
Privacy Policy
About Us
Career Opportunities
Contact AAWU Internet Services Site last modified: April, 17th 2012